Volver al catálogo

BLOCK DM-SL R/B

ActivoGTO
NORAD 26762·ROCKET BODY· XX

Lanzado May 8, 2001 desde Sea Launch Platform

Loading…

TLE

EnvejeciendoSource: Space-Track

Época: Sep 14, 2026, 21:02 UTC

1 26762U 01018B   26257.87658721 -.00000066  00000-0  50214-2 0  9996
2 26762   1.3147  26.1312 7052790 180.7622 199.4933  2.23851915207443

Sigue BLOCK DM-SL R/B en tiempo real con AllMySat

Download on the App Store